User: anonymous   Login
Location: Clatteringshaws Loch
(55.0508°N, 4.2860°W)
Time: 03:26:44
(UTC+01:00)
Language:

Sapphire - Orbit

View from above orbital plane
View from above orbital plane
View from above satellite
View from above satellite

Ground track
Ground track

The orbit data is extracted from the following two-line orbital elements,

1 26932U 01043D   17146.46895106 -.00000056 +00000-0 +10270-4 0  9994
2 26932 067.0543 149.5367 0009183 277.4680 082.5378 14.30249389817191
Epoch (UTC): 26 May 2017 11:15:17
Eccentricity: 0.0009183
inclination: 67.0543°
perigee height: 784 km
apogee height: 797 km
right ascension of ascending node: 149.5367°
argument of perigee: 277.4680°
revolutions per day: 14.30249389
mean anomaly at epoch: 82.5378°
orbit number at epoch: 81719

The dashed part of the orbit path shows where the satellite is in the earth's shadow,  

DLR